This is the latest recevied weather packets stored in our database for station/object N1YZ. If no packets are shown the sender has not sent any weather packets the latest 10 day(s).
| Time | Temp. | Humidity | Pressure | Rain* | Wind** | Luminosity | Snow |
|---|---|---|---|---|---|---|---|
| 1777925320 | 24.44° C | 45% | 1033.5 hPa | 0 mm | - | 138 W/m² | - |
| 1777925017 | 24.44° C | 45% | 1033.8 hPa | 0 mm | - | 146 W/m² | - |
| 1777924713 | 24.44° C | 46% | 1033.7 hPa | 0 mm | - | 93 W/m² | - |
| 1777924409 | 25° C | 43% | 1033.9 hPa | 0 mm | - | 106 W/m² | - |
| 1777924106 | 25° C | 44% | 1034.2 hPa | 0 mm | - | 394 W/m² | - |
| 1777923802 | 25° C | 39% | 1034 hPa | 0 mm | - | 551 W/m² | - |
| 1777923498 | 25° C | 41% | 1034.1 hPa | 0 mm | - | 242 W/m² | - |
| 1777923196 | 24.44° C | 45% | 1034.3 hPa | 0 mm | - | 378 W/m² | - |
| 1777922894 | 25° C | 43% | 1034.1 hPa | 0 mm | - | 593 W/m² | - |
| 1777922592 | 26.67° C | 41% | 1034 hPa | 0 mm | - | 202 W/m² | - |
| 1777922290 | 26.11° C | 43% | 1034.2 hPa | 0 mm | - | 613 W/m² | - |
| 1777921987 | 26.11° C | 44% | 1034.4 hPa | 0 mm | - | 669 W/m² | - |
| 1777921682 | 26.11° C | 44% | 1034.5 hPa | 0 mm | - | 722 W/m² | - |
| 1777921379 | 26.67° C | 43% | 1034.4 hPa | 0 mm | - | 640 W/m² | - |
| 1777921075 | 26.11° C | 41% | 1034.5 hPa | 0 mm | - | 657 W/m² | - |
| 1777920773 | 25.56° C | 46% | 1034.5 hPa | 0 mm | - | 681 W/m² | - |
| 1777920469 | 26.11° C | 46% | 1034.8 hPa | 0 mm | - | 704 W/m² | - |
| 1777920164 | 25° C | 46% | 1034.6 hPa | 0 mm | - | 712 W/m² | - |
| 1777919860 | 25° C | 45% | 1035 hPa | 0 mm | - | 382 W/m² | - |
| 1777919557 | 25.56° C | 42% | 1034.8 hPa | 0 mm | - | 592 W/m² | - |
| 1777919256 | 25.56° C | 44% | 1035.1 hPa | 0 mm | - | 628 W/m² | - |
| 1777918953 | 25° C | 46% | 1035.1 hPa | 0 mm | - | 684 W/m² | - |
| 1777918650 | 25.56° C | 46% | 1035.2 hPa | 0 mm | - | 709 W/m² | - |
| 1777918347 | 25.56° C | 41% | 1035.2 hPa | 0 mm | - | 713 W/m² | - |
| 1777918046 | 25.56° C | 43% | 1035.4 hPa | 0 mm | - | 686 W/m² | - |
* Rain latest hour (hover to see other rain measurements)
** Current wind speed in m/s (hover to see current wind gust speed)